Location: Campestrin
(46.4667°N, 11.7167°E)
Time: 03:14:00
(UTC+00:00)

Meteor 1-4 Rocket - Pass Details

Date: 18 April 2021
Orbit: 448 x 498 km, 81.2° (Epoch: 16 May)

Event Time Altitude Azimuth Distance (km) Brightness Sun altitude
Exits shadow 21:10:13 26° 6° (N) 931 4.4 -26.2°
Drops below altitude 10° 21:11:55 10° 9° (N) 1,613 5.8 -26.4°
Sets 21:14:01 0° 10° (N) 2,501 6.8 -26.6°
